Theta_e
324 319 322 320 320 319 319 319 319 319 319 319 319 320 321 322 323 324 325 325 326 327 326 327 325 323 323 326 326 320 314 313 314 315 316 314 313 313 313 313 314 315 316 317 320 321 323 324 326 327 327 328 328 328 329 329 329 327 327 327 326 324 322 321 323 324 324 324 323 321 323 324 324 324 323 323 323 323 325 325 324 323 325 327 327
322 321 321 320 320 319 320 319 319 319 319 319 319 319 320 321 322 322 323 324 325 326 327 327 326 324 323 324 326 325 318 313 313 314 316 315 313 313 313 313 314 314 316 318 319 321 322 325 327 327 326 327 328 328 329 330 330 330 329 330 330 330 328 327 326 325 325 325 325 322 321 322 322 323 323 325 326 327 327 326 325 325 326 328 327
322 322 321 321 320 319 319 319 319 319 318 318 318 319 319 320 322 322 322 323 324 326 327 327 327 325 324 324 324 326 325 318 313 314 316 316 314 313 313 313 313 314 316 318 319 320 322 325 326 325 323 325 327 328 329 330 331 331 330 331 332 332 332 332 331 329 327 325 324 323 323 323 323 324 326 329 329 328 328 326 325 325 327 327 326
324 321 321 321 319 319 319 319 319 318 319 318 318 318 319 319 321 322 322 323 324 325 327 327 327 326 325 324 323 324 327 325 318 314 315 316 314 313 313 313 313 314 316 318 319 320 322 324 325 323 321 322 324 326 328 330 331 331 331 332 334 333 333 333 334 334 332 328 324 323 325 325 325 326 327 329 329 329 329 328 326 325 327 327 326
327 321 321 320 319 319 319 318 318 318 318 318 318 317 318 319 320 321 322 324 325 325 326 326 327 327 325 324 323 322 324 327 324 317 315 316 314 313 314 313 313 314 315 317 318 320 321 323 323 322 320 320 321 323 326 329 331 331 332 332 334 335 334 334 334 335 334 333 329 323 324 326 328 329 329 329 329 329 329 328 327 324 323 324 325
326 321 321 320 320 319 319 319 318 318 317 317 317 317 317 317 319 320 321 323 324 325 325 326 327 327 325 323 323 322 321 324 326 321 316 316 315 313 314 313 313 313 315 316 318 319 320 322 322 322 320 319 320 321 323 327 331 332 333 333 335 335 335 335 334 335 335 335 334 327 324 326 328 331 332 330 329 328 327 326 326 323 321 320 320
323 321 321 319 320 319 319 318 318 318 317 317 316 317 317 317 318 319 319 320 321 322 324 325 325 326 325 323 322 322 320 320 325 323 316 316 316 314 314 314 314 313 314 316 317 319 320 321 321 321 321 319 319 320 321 325 329 332 334 335 335 336 336 335 335 335 335 335 336 332 326 324 326 328 330 331 330 327 325 323 322 320 318 317 316
322 321 321 319 319 318 319 318 318 319 318 317 316 316 316 317 317 318 319 318 318 319 321 322 323 324 324 322 322 321 320 318 321 323 317 316 316 314 314 314 314 313 313 315 316 318 319 320 321 321 321 319 319 318 319 322 327 332 335 336 336 336 336 334 335 335 335 335 335 333 327 325 325 325 326 329 329 325 323 319 318 316 315 314 313
322 321 320 320 319 318 319 319 319 318 318 317 316 316 316 316 316 317 318 318 318 317 318 320 321 321 321 320 320 320 320 318 318 323 318 315 317 314 314 314 313 314 313 314 316 317 318 319 320 321 321 320 319 318 318 321 326 331 334 336 335 335 335 333 334 334 335 335 334 332 329 326 325 324 324 326 327 321 318 316 314 314 313 313 312
322 320 320 319 319 319 318 319 319 318 318 317 317 316 316 316 316 317 317 317 316 316 316 317 318 319 318 317 318 319 321 319 317 321 319 315 317 315 313 314 313 314 313 314 315 316 317 318 319 319 320 320 320 318 317 319 325 331 334 335 335 335 335 334 334 333 334 335 333 330 329 329 325 324 323 324 324 319 317 316 315 314 313 312 311
321 320 320 320 319 319 318 319 318 319 319 318 318 317 316 316 316 316 316 316 314 314 313 313 315 316 316 315 316 320 323 323 319 320 321 316 317 317 314 314 314 314 314 313 314 315 316 316 317 317 319 319 320 318 316 318 324 331 334 335 335 334 334 335 335 334 334 334 332 328 328 329 326 325 324 323 323 321 320 320 317 315 311 309 308
322 321 320 320 319 318 318 319 319 319 319 319 318 316 316 316 317 316 315 313 312 311 311 310 311 312 313 313 314 321 326 326 322 319 321 318 317 318 315 314 314 314 314 313 314 315 316 316 315 316 317 318 318 317 315 317 324 331 334 334 334 334 334 334 335 334 334 334 331 327 327 328 327 328 326 324 323 322 323 322 320 316 311 306 305
321 320 320 319 319 319 318 319 319 319 320 320 318 317 316 317 316 315 313 311 310 310 310 309 310 310 311 311 313 322 328 328 325 318 319 320 317 319 317 315 314 314 314 313 314 314 315 315 315 315 316 317 316 315 313 316 324 331 333 334 334 334 334 334 334 334 334 334 328 325 327 326 328 329 327 325 325 325 325 323 321 318 312 305 304
321 320 320 319 319 318 319 319 319 319 320 322 320 317 316 317 316 314 313 311 310 310 310 310 310 310 310 310 311 321 328 328 327 319 318 321 318 319 320 317 314 314 314 313 313 314 315 315 314 314 314 314 314 313 313 316 322 328 332 333 334 334 334 333 333 333 333 333 328 325 326 326 328 330 327 327 327 327 324 322 321 318 313 305 304
321 320 320 319 319 319 319 319 319 319 321 323 322 319 317 317 316 314 313 311 311 310 310 311 311 311 311 310 310 319 326 327 327 320 317 321 320 320 323 321 316 314 314 314 314 313 314 315 315 314 314 313 313 312 312 316 322 326 330 332 334 334 334 333 332 331 332 333 330 326 326 326 329 330 328 328 328 326 322 320 319 317 313 305 303
321 321 320 319 319 318 319 319 320 320 321 323 323 320 318 317 316 315 313 312 311 311 311 311 311 311 311 310 311 318 325 326 326 322 317 320 322 322 324 324 318 314 313 314 314 313 314 314 315 314 314 314 313 313 312 317 323 325 329 332 334 334 333 333 332 333 333 333 331 327 327 327 328 329 329 328 327 325 323 320 318 316 313 305 303
324 322 320 320 319 318 319 319 320 321 322 324 325 322 319 318 317 315 313 312 311 311 311 311 311 312 312 311 312 319 323 324 324 321 317 319 323 324 325 325 321 315 313 314 313 313 313 314 315 315 315 315 314 313 312 317 323 324 326 330 333 334 334 333 332 333 334 333 331 328 328 328 328 329 329 329 328 325 324 321 318 316 312 305 303
330 326 321 319 319 319 320 320 321 321 322 325 327 324 321 319 318 317 314 312 311 311 311 311 312 311 312 312 314 320 323 322 321 320 318 319 323 325 325 324 321 317 313 314 313 313 313 314 315 315 315 315 315 314 312 318 323 323 325 330 333 334 334 334 333 332 332 333 331 328 329 329 329 329 329 330 329 327 324 322 318 316 311 304 303
336 331 323 319 319 320 320 321 321 322 323 325 327 326 323 322 320 318 315 312 310 310 311 311 311 311 312 312 315 322 324 320 319 319 320 320 322 324 324 323 322 317 313 313 313 313 313 314 315 315 316 316 316 315 312 318 322 323 327 331 332 334 334 334 333 331 331 333 331 329 328 329 328 329 330 330 329 327 325 322 319 316 311 304 303
339 332 324 319 320 320 321 321 321 322 323 325 327 327 325 323 322 320 316 313 310 310 311 310 311 311 311 312 314 321 323 322 321 321 320 320 322 323 323 322 322 317 313 313 313 313 313 313 314 315 316 316 316 315 313 317 322 323 328 330 329 331 332 332 332 331 331 332 330 328 327 328 328 329 331 329 329 327 324 321 318 316 310 304 303
340 332 324 320 320 321 321 321 321 322 322 324 327 327 326 325 324 322 318 314 311 310 311 311 311 311 311 311 313 317 320 321 323 322 320 320 321 321 321 321 321 317 313 313 313 313 313 313 313 314 315 316 316 316 314 317 321 323 327 330 329 330 332 331 331 332 332 331 329 327 326 327 328 329 331 329 328 326 323 320 317 314 309 303 303
342 334 326 321 320 321 321 321 321 322 322 322 324 327 327 327 326 324 320 315 312 311 311 311 311 310 311 311 313 315 318 322 323 322 322 321 320 320 320 320 318 315 313 313 313 313 313 313 313 313 314 315 316 315 314 317 321 323 325 329 330 332 332 330 331 332 331 331 329 325 325 325 326 327 330 329 327 326 323 319 316 313 306 303 303
342 336 327 321 319 320 320 321 321 321 322 322 322 325 327 327 328 326 321 316 313 311 311 311 311 311 311 311 314 318 322 327 326 323 322 322 321 320 319 318 316 314 313 313 313 313 313 313 313 313 312 313 315 314 315 319 322 323 325 327 329 332 332 330 331 332 330 331 328 323 323 324 324 325 327 328 327 326 322 318 316 311 304 302 303
342 337 328 321 319 319 320 321 321 321 322 322 322 324 325 327 328 327 323 317 314 312 311 311 311 311 310 312 314 319 327 331 331 328 325 322 321 321 320 317 315 314 313 313 313 313 313 313 313 312 313 313 312 315 320 325 327 328 328 328 329 331 331 330 330 331 331 331 327 323 323 324 323 323 326 328 327 325 321 318 314 307 303 303 303
343 339 333 326 322 320 321 321 322 321 322 323 323 324 324 325 327 328 324 319 316 313 311 311 311 311 310 311 312 315 325 331 331 330 329 327 324 322 321 318 315 314 313 313 313 313 313 313 313 313 313 312 314 322 327 330 331 331 331 330 331 332 331 330 331 332 332 331 327 324 326 326 324 323 325 326 325 323 319 317 311 304 302 303 302
342 342 338 332 327 322 320 321 323 323 323 323 322 324 324 325 326 327 326 323 320 317 313 311 310 310 310 310 311 312 318 325 325 326 330 331 327 324 322 320 317 314 313 313 313 313 313 313 313 313 312 312 320 330 330 329 331 332 331 330 331 332 331 331 331 331 330 330 328 326 327 327 325 323 323 324 322 321 317 313 306 302 303 302 302
337 343 341 336 333 328 322 321 323 324 324 324 326 325 325 326 326 326 326 325 325 323 319 315 311 310 310 310 311 311 313 319 321 322 327 327 327 327 325 324 320 316 314 313 313 313 313 313 312 313 313 314 325 331 330 330 331 331 330 330 331 330 330 331 331 330 329 330 329 328 328 327 325 322 321 321 321 319 314 308 303 302 302 302 302
335 342 343 340 339 335 329 325 323 325 327 330 333 331 327 327 327 327 328 328 329 330 327 322 318 311 310 311 310 310 312 317 320 322 324 323 324 327 326 325 321 317 315 313 313 313 312 313 312 314 319 323 328 330 329 329 330 331 330 329 330 329 329 330 331 330 330 330 330 329 329 328 325 323 321 319 318 315 309 303 302 302 302 302 302
339 342 343 341 341 340 337 333 326 325 327 333 337 337 334 331 329 329 331 332 332 334 333 331 326 317 314 315 313 310 312 319 323 326 327 323 322 326 329 328 323 318 316 314 312 313 313 313 312 317 325 328 329 330 329 329 329 330 329 329 329 329 329 329 329 330 330 330 331 331 329 327 325 324 322 319 316 311 305 302 302 302 302 302 302
338 341 341 340 340 341 341 337 332 330 329 332 337 340 340 335 330 332 336 336 335 336 336 334 331 325 321 322 320 314 316 322 325 329 329 324 323 328 331 332 329 324 321 320 318 315 313 315 319 324 328 327 327 329 330 329 329 330 330 329 330 329 329 329 329 330 330 331 331 331 328 326 323 321 321 319 313 307 303 303 302 302 302 302 302
336 338 339 336 334 340 343 340 338 338 334 335 338 340 342 337 333 336 340 339 338 337 336 334 333 331 329 329 327 321 321 326 327 329 327 323 326 329 332 334 333 331 328 329 330 325 319 321 327 330 330 329 329 330 330 329 329 330 330 330 330 330 330 330 330 330 331 332 331 329 326 325 322 320 320 316 309 304 303 303 302 302 302 302 302
332 334 337 335 331 336 342 342 341 341 339 339 341 342 343 339 337 339 341 341 340 338 336 335 334 334 333 332 330 326 324 327 327 326 323 323 326 329 333 335 335 334 332 333 336 331 327 329 330 331 331 331 330 330 329 329 329 329 329 330 330 331 331 331 331 331 332 332 330 327 326 325 322 317 314 310 304 303 303 302 302 302 302 302 301
331 332 334 334 333 333 340 342 343 343 341 341 342 343 342 340 340 341 341 341 341 338 337 337 336 335 334 332 331 328 325 327 328 326 324 324 325 329 334 336 335 336 334 335 336 333 333 333 331 331 332 331 330 330 330 330 330 330 330 330 331 332 331 331 331 331 332 331 328 327 327 326 323 316 313 311 305 302 303 303 302 302 302 301 301
330 332 333 334 335 332 338 343 344 344 342 341 342 343 342 342 342 342 341 341 341 339 338 339 338 335 335 333 332 329 324 326 329 329 327 325 324 327 332 335 336 336 335 335 334 333 335 335 332 332 332 332 330 330 331 331 330 330 330 330 332 332 331 331 331 331 331 330 328 328 327 326 324 320 318 318 312 304 302 303 303 302 301 301 301
330 330 331 332 333 331 337 342 343 344 343 342 342 342 342 343 343 343 341 341 341 340 339 338 337 336 335 333 332 328 323 326 331 331 329 326 324 323 326 331 335 335 334 335 333 332 335 335 333 333 332 332 331 330 332 332 332 331 331 331 333 332 331 331 331 331 330 330 328 328 327 326 325 323 322 323 318 307 303 304 303 302 301 301 301
328 330 329 327 330 331 338 343 343 344 343 342 342 342 342 342 343 343 342 341 341 341 339 337 336 336 334 333 331 325 321 325 330 332 332 328 324 321 322 326 329 329 330 333 330 327 332 335 334 333 332 332 332 331 332 333 332 332 332 332 332 331 331 332 332 331 330 329 328 328 328 326 324 324 324 324 321 310 303 304 304 303 302 301 301
328 329 328 325 329 335 341 343 344 344 343 341 341 342 342 341 341 342 342 341 341 340 339 337 336 335 333 331 329 321 318 323 325 328 330 329 324 322 322 321 320 324 328 329 324 321 326 333 333 331 331 332 331 331 332 332 332 332 332 332 332 331 331 332 331 331 330 329 328 327 327 326 325 324 324 325 323 311 303 305 305 303 303 301 301
329 329 329 326 328 337 343 344 344 343 343 342 341 341 342 341 340 341 342 342 340 340 339 338 337 335 333 330 326 319 316 320 320 321 325 326 324 323 322 319 319 325 330 327 322 320 321 325 327 326 327 329 331 331 331 332 332 332 332 332 332 331 331 331 331 330 329 328 328 327 326 326 325 324 324 325 323 314 308 308 307 305 304 302 301
331 333 332 327 327 336 344 344 344 344 343 342 340 340 342 341 340 341 342 341 340 339 338 338 337 335 333 329 325 318 313 315 315 315 320 322 323 326 325 323 323 327 330 328 325 326 325 324 325 324 326 329 331 332 332 332 333 333 333 333 332 332 331 331 331 330 329 327 327 326 326 325 325 324 325 324 322 316 312 311 309 306 306 304 301
333 336 334 328 330 336 342 343 342 343 343 342 341 340 341 341 340 339 340 340 340 339 338 337 336 334 334 330 325 321 313 310 311 311 316 320 323 329 330 327 327 329 331 330 331 332 332 331 330 330 331 332 332 333 334 333 334 334 334 333 333 331 331 331 331 330 329 328 327 326 326 325 325 324 324 324 321 317 314 313 310 308 309 308 305
339 341 337 331 333 335 336 338 339 342 343 341 341 340 339 340 339 338 338 339 339 339 339 337 334 335 336 331 326 325 317 309 309 310 313 317 322 330 333 332 332 334 335 334 335 335 334 334 334 334 333 333 334 334 334 334 334 334 334 333 332 331 331 331 331 330 330 329 327 327 326 326 325 324 324 322 320 317 315 315 312 308 310 312 310
342 343 339 332 333 334 333 334 337 341 341 340 340 339 339 337 337 338 338 339 339 339 339 337 335 336 336 332 329 328 323 314 309 310 312 315 321 328 334 337 337 337 337 336 336 335 334 334 334 334 334 333 334 333 333 333 334 334 333 333 332 332 331 331 331 331 330 328 327 327 326 326 325 324 324 321 319 317 316 316 312 307 310 314 312
339 340 339 335 335 334 334 335 336 338 339 338 338 338 338 337 335 337 338 339 340 339 338 336 336 337 336 333 331 330 328 321 311 309 311 315 320 326 332 337 338 338 337 337 337 335 334 334 333 334 333 333 333 333 332 332 333 333 333 332 332 332 332 332 331 331 330 328 328 327 326 326 324 323 322 321 320 318 317 316 311 309 311 313 312
339 339 341 342 341 337 333 333 335 336 337 336 336 337 338 336 335 336 339 340 339 339 337 336 337 338 337 335 333 331 331 326 318 311 310 314 319 324 328 333 337 338 337 337 337 335 334 334 333 334 333 332 332 332 332 333 333 333 333 332 332 332 332 331 330 330 330 329 328 327 326 325 324 323 322 321 320 318 318 316 313 311 312 313 311
341 340 341 343 343 339 334 332 333 335 334 333 334 337 338 337 335 336 339 340 339 339 337 336 337 338 338 336 334 333 332 330 325 317 312 313 316 320 324 329 335 338 337 337 336 335 334 333 333 333 333 332 332 331 332 333 333 333 332 332 332 331 330 329 329 329 329 329 328 326 326 325 324 323 322 321 319 318 317 316 314 313 313 312 311
340 339 339 339 340 339 336 333 334 334 333 333 334 336 338 337 335 336 338 339 338 339 337 334 336 338 338 337 336 334 334 333 331 324 316 314 314 316 321 328 333 336 336 337 336 335 334 333 333 333 333 333 332 332 332 333 334 333 332 332 331 331 330 329 329 329 329 328 328 327 327 326 324 323 322 321 319 318 316 315 314 313 312 312 311
338 338 339 339 337 337 336 335 334 333 332 333 333 335 337 337 336 336 337 337 337 338 337 334 335 338 338 338 337 335 334 334 334 330 322 316 315 317 322 327 330 333 334 335 335 335 334 333 333 333 333 333 333 333 333 332 333 333 332 332 332 331 331 331 330 330 329 328 328 328 327 326 324 324 323 322 320 318 317 315 313 312 312 312 312
335 335 338 339 337 335 334 334 334 333 333 334 333 333 335 336 337 337 337 337 337 337 337 335 335 338 338 338 338 336 334 334 334 332 326 320 318 318 321 326 327 330 332 332 334 335 334 333 333 333 333 334 334 333 333 333 333 333 332 332 332 332 331 332 331 330 329 329 328 327 328 327 325 325 324 323 321 319 318 316 313 312 312 312 312
334 334 334 335 334 334 334 333 333 334 334 334 333 332 332 334 336 338 338 337 337 337 338 336 335 338 339 338 338 337 335 334 333 333 328 323 321 318 319 324 327 328 329 331 332 334 334 333 333 334 333 334 334 334 334 334 333 332 332 331 332 332 332 332 330 330 330 329 328 328 327 327 326 326 325 324 322 320 319 317 314 312 312 312 313
337 336 335 334 333 334 335 334 334 335 335 335 334 332 332 335 337 337 337 337 336 336 337 337 336 338 339 338 338 337 335 333 333 332 329 325 324 320 317 321 325 325 325 328 332 334 334 333 332 333 333 332 333 334 334 334 333 333 332 331 331 332 332 332 330 330 331 330 330 329 328 327 327 326 325 325 324 321 319 318 316 314 313 313 313
338 337 337 337 335 335 335 336 336 335 336 336 333 332 333 334 335 336 336 336 335 335 336 337 337 337 338 338 338 338 336 334 332 332 331 328 327 324 319 320 323 323 323 326 331 334 335 334 332 331 332 332 333 333 334 333 333 333 333 332 331 331 331 332 331 330 330 330 330 330 329 328 327 327 327 326 324 322 320 319 318 317 315 314 314
Wind_Speed
24 23 23 23 22 22 21 20 19 19 18 18 19 18 17 16 15 14 13 13 13 13 13 13 13 14 15 16 17 18 19 20 20 19 19 19 19 19 19 19 19 19 19 18 18 19 19 18 18 19 19 19 20 20 20 21 21 20 19 19 20 23 26 27 26 25 24 23 23 22 22 20 20 19 17 18 19 20 21 21 21 21 21 20 19
29 25 23 24 23 22 21 21 20 19 19 18 19 18 18 16 15 15 14 13 13 14 14 13 12 13 14 15 16 17 17 18 19 18 18 19 19 19 18 18 18 19 18 17 18 18 18 17 18 18 18 18 19 20 20 20 20 20 20 19 19 20 22 23 23 23 23 22 21 21 21 20 19 18 17 18 19 19 20 21 21 21 20 19 19
31 27 24 24 23 23 22 21 20 19 19 19 19 18 18 17 15 15 14 14 14 14 14 14 12 12 13 14 15 16 16 17 18 18 18 18 19 18 17 17 18 18 17 17 18 17 17 17 17 17 17 17 18 19 20 20 20 20 19 19 20 21 21 21 21 21 21 21 20 19 18 18 17 17 17 18 19 18 19 19 20 20 18 18 18
30 27 25 24 23 23 22 21 20 20 19 19 19 18 18 17 16 15 14 14 15 15 15 14 13 12 12 13 14 15 16 16 17 18 18 18 18 18 17 17 18 18 17 17 17 17 17 16 16 16 16 17 17 18 19 19 19 20 19 19 20 21 21 21 20 18 18 19 20 18 16 15 17 18 18 18 18 18 17 16 18 19 17 17 17
29 28 26 24 24 23 23 22 21 20 19 19 19 18 18 17 16 15 15 15 15 15 15 15 14 13 12 12 13 14 15 16 16 17 18 18 18 18 17 16 17 17 16 16 16 16 16 16 15 15 16 16 17 17 18 18 19 19 19 18 19 20 19 18 16 14 14 14 16 18 15 14 16 17 17 17 18 17 16 14 16 18 17 16 17
29 29 26 25 25 24 23 22 21 20 19 19 18 18 18 17 17 16 15 15 15 15 15 15 14 13 12 12 12 13 15 16 16 17 18 18 18 18 17 16 16 17 16 16 15 15 15 15 14 14 15 15 16 16 17 17 17 18 18 17 18 18 15 15 14 12 12 12 11 16 14 12 15 14 13 15 17 17 16 15 15 16 16 16 16
30 29 27 26 25 24 23 23 22 21 20 19 19 18 18 18 17 16 16 15 15 15 15 15 15 14 13 12 12 13 14 16 17 17 18 18 18 18 17 16 16 16 16 15 15 15 14 14 13 13 14 14 15 16 16 16 16 16 17 17 17 15 12 13 14 13 12 12 11 13 12 11 13 14 13 13 14 14 15 15 15 15 16 16 16
29 28 27 26 25 25 24 23 22 21 20 20 19 19 18 18 18 17 16 16 15 15 15 15 15 15 14 13 12 13 13 15 17 17 18 19 18 18 17 16 15 15 15 15 14 14 14 13 12 12 12 13 14 15 15 14 14 14 15 16 16 13 11 12 13 13 12 11 12 12 10 10 12 13 14 13 12 12 14 14 15 15 15 15 15
28 27 26 26 25 25 24 24 22 21 20 20 20 19 18 18 18 17 16 16 16 15 15 15 15 15 15 14 13 13 13 14 17 18 19 19 18 18 17 16 15 14 14 14 14 14 13 12 11 11 11 12 13 14 14 13 13 13 14 14 13 13 11 11 12 13 12 11 12 10 9 10 11 12 13 13 12 13 15 15 15 16 15 15 15
28 26 25 25 24 25 24 24 22 22 21 21 20 18 18 18 18 17 17 16 16 16 15 15 15 16 15 15 14 14 14 14 16 18 20 19 18 18 17 17 15 14 13 14 14 13 13 12 11 10 10 10 11 13 13 13 12 12 13 11 10 13 12 10 11 12 11 11 11 9 9 10 11 12 12 12 12 14 15 15 16 16 15 15 14
27 26 25 24 24 24 24 24 23 22 21 21 20 19 18 18 18 17 16 16 16 16 15 15 15 15 15 15 15 14 14 14 16 18 20 20 19 18 17 17 16 14 13 13 13 13 12 11 10 10 9 10 10 11 13 12 12 11 11 10 9 11 10 10 10 10 10 9 9 8 8 9 10 12 12 11 11 12 14 15 16 16 16 14 14
28 26 25 24 24 24 24 24 23 23 22 21 20 19 18 18 17 17 17 16 16 16 15 15 14 15 15 15 15 16 15 14 15 18 21 21 19 18 17 17 16 15 13 12 12 12 11 11 10 9 9 9 9 10 12 12 11 10 9 8 8 8 8 8 9 9 9 7 7 8 7 8 10 11 11 10 11 12 13 14 14 16 16 14 13
29 27 25 25 25 25 24 24 24 23 22 22 21 19 18 18 17 17 17 16 15 15 15 15 14 14 14 15 16 17 16 15 15 18 21 21 20 18 17 17 16 15 14 12 11 11 10 10 9 9 8 8 8 9 11 11 10 9 8 8 7 7 7 7 8 7 7 6 7 8 7 7 9 9 10 10 11 12 12 13 13 14 15 14 12
29 28 26 26 25 25 25 24 24 23 23 22 21 20 19 18 17 17 17 16 15 14 14 14 14 14 14 15 17 17 16 15 14 17 21 21 21 19 17 16 16 15 14 12 11 10 10 9 9 8 8 7 7 8 10 10 9 8 7 6 6 6 6 6 7 6 5 6 7 8 7 7 8 8 9 10 10 11 12 13 12 13 14 13 11
28 28 27 27 26 26 25 25 24 24 23 22 21 20 19 18 17 17 16 16 15 14 14 14 14 13 14 15 17 18 17 16 15 16 20 22 21 19 17 16 16 15 14 13 11 10 9 9 8 8 7 7 7 8 9 9 8 7 6 6 5 4 5 5 4 4 4 4 5 7 7 6 7 7 8 9 9 9 12 12 12 13 13 12 11
28 28 28 27 27 27 26 25 24 24 23 22 21 20 19 18 17 16 16 15 15 15 14 14 13 13 13 15 18 19 17 16 15 16 19 20 21 20 18 16 16 15 14 13 12 10 9 8 8 8 7 6 6 7 8 9 8 6 5 5 5 4 3 3 3 4 4 3 5 6 6 5 7 7 7 7 7 8 11 11 12 13 13 12 11
28 29 29 28 27 27 26 25 24 23 23 22 21 20 19 18 17 17 16 16 16 15 15 14 14 13 13 15 19 19 16 16 15 16 17 19 19 19 18 16 16 15 14 13 12 11 10 9 8 7 6 6 6 6 7 8 7 5 5 4 3 2 2 3 3 3 3 3 4 5 5 5 6 6 6 6 6 8 9 11 11 12 12 11 10
25 27 28 29 28 27 27 25 24 23 22 22 21 19 19 18 17 17 16 16 16 16 15 15 14 14 14 15 18 18 16 16 15 16 16 17 18 18 18 17 17 16 15 14 13 12 10 9 8 7 6 5 5 5 6 8 6 4 5 4 2 1 2 2 1 2 3 3 4 4 4 4 5 5 5 4 5 7 9 10 11 12 11 10 9
21 24 27 29 29 28 27 25 24 23 23 22 21 20 19 18 18 17 16 16 16 16 16 16 15 14 14 16 18 18 16 15 14 15 16 17 17 18 18 18 17 17 16 14 13 12 11 10 8 7 6 5 4 4 5 7 6 3 4 4 2 1 1 0 1 1 3 2 3 3 2 2 4 4 4 3 4 7 8 10 11 12 11 9 8
19 23 28 30 30 28 27 26 24 23 23 22 22 21 20 19 18 17 16 16 16 16 16 16 16 16 15 16 17 17 15 14 14 15 17 17 17 17 17 18 18 18 17 15 14 13 11 10 9 7 6 5 3 3 4 6 5 3 4 3 1 1 1 1 1 2 1 1 1 2 1 2 3 3 2 2 4 6 8 10 11 11 9 8 8
18 22 28 31 29 28 28 26 25 23 23 22 21 21 20 19 18 17 17 17 16 16 16 16 16 16 16 16 17 17 16 15 14 15 17 17 17 17 17 17 18 18 17 15 14 13 12 11 9 7 6 5 3 2 3 5 4 3 4 3 1 1 1 1 1 1 0 1 1 1 1 2 2 2 1 3 4 6 8 10 10 10 8 7 7
17 19 25 30 29 28 28 26 26 24 23 22 21 21 20 20 19 18 18 18 17 17 17 17 17 17 17 17 17 17 16 15 14 15 16 17 17 16 16 17 18 18 17 15 14 13 12 11 9 8 6 4 3 2 2 4 4 3 3 3 2 2 2 3 2 1 0 1 1 0 1 1 1 1 2 3 4 6 9 10 10 9 7 7 6
17 18 22 28 28 28 28 27 26 25 24 22 21 21 21 21 19 19 19 19 18 18 18 17 17 17 17 17 17 16 16 15 13 14 15 16 17 16 16 16 17 18 17 16 14 13 12 11 9 7 6 4 3 2 3 5 4 2 2 2 2 3 4 4 3 1 0 1 2 1 0 1 2 2 3 4 5 8 10 10 9 7 6 6 5
15 16 20 26 29 29 28 28 27 26 26 24 23 22 21 21 20 20 20 20 19 18 18 17 17 16 17 17 16 16 16 15 13 13 12 14 15 15 16 16 17 18 17 16 15 13 12 10 9 7 5 4 3 2 4 5 3 1 1 2 3 4 5 4 4 2 1 2 3 1 0 2 3 4 4 5 7 9 10 9 8 6 5 5 5
13 15 17 22 27 28 28 28 27 27 27 25 25 23 22 22 21 21 20 20 19 19 18 18 17 17 17 17 16 15 16 15 14 13 13 13 14 14 16 17 18 18 18 17 15 14 12 11 9 7 5 4 2 2 4 4 2 4 2 3 4 4 5 5 4 2 2 4 4 2 2 2 3 4 5 6 8 9 9 8 6 5 4 4 5
12 14 16 17 22 26 27 28 27 26 26 25 25 23 23 22 22 20 18 18 18 18 18 18 18 17 17 17 16 15 16 16 14 15 14 13 12 13 14 15 17 19 18 17 16 15 13 11 9 7 5 4 3 3 3 2 3 5 3 3 5 5 6 6 4 4 4 5 5 4 3 3 4 5 6 7 8 8 8 6 4 4 4 4 4
16 17 17 16 19 22 23 25 27 26 25 24 23 22 23 22 20 18 17 17 17 17 16 17 18 18 18 17 16 15 15 15 15 16 14 12 11 11 11 12 15 18 19 18 17 15 13 12 10 8 5 5 6 6 5 4 6 8 5 2 5 5 5 6 6 5 5 5 6 6 4 5 6 7 7 8 7 6 5 4 3 3 4 4 4
21 21 17 16 17 17 18 21 24 25 24 23 21 20 21 20 19 18 17 16 16 16 14 15 16 18 19 17 17 16 16 16 15 15 12 11 11 9 6 6 10 15 18 19 18 15 13 12 10 8 7 7 6 5 8 8 8 10 7 3 5 5 5 7 7 7 6 6 7 5 4 6 8 9 9 8 6 5 3 2 2 3 3 3 3
21 22 18 17 18 17 15 17 21 23 23 22 20 20 20 20 20 19 18 17 16 15 13 12 13 17 19 17 16 17 17 16 14 13 10 11 10 8 5 2 3 9 13 16 17 15 13 12 10 10 10 9 6 3 9 13 12 11 9 7 7 7 7 7 8 8 7 6 6 4 5 6 8 9 8 8 6 3 2 2 2 2 2 2 3
21 19 17 16 18 19 19 17 18 20 22 22 21 20 20 20 21 20 19 17 15 14 12 12 12 13 16 15 15 16 17 15 14 13 12 11 9 8 5 4 4 6 12 11 11 11 12 12 10 10 9 8 5 6 10 13 14 12 10 10 9 8 7 7 8 8 5 5 5 4 5 7 9 9 7 6 5 4 2 2 2 2 2 2 3
23 21 19 17 18 21 24 22 18 19 23 23 22 21 20 20 21 19 18 16 15 15 14 14 13 11 12 13 14 16 17 17 15 14 13 12 12 9 7 4 3 5 10 10 5 7 10 11 11 9 6 4 6 10 11 12 13 12 12 12 11 9 8 8 9 7 5 6 5 3 4 6 9 7 4 4 4 4 2 2 2 2 2 2 3
22 23 22 21 21 24 27 27 22 20 23 24 23 22 21 20 20 17 18 17 15 16 16 16 15 13 12 13 14 14 16 19 17 14 13 13 13 11 7 6 4 4 6 6 4 6 9 9 10 8 4 8 13 13 13 15 15 14 14 12 12 11 9 10 9 7 7 7 5 2 4 6 8 5 2 3 3 4 3 2 2 2 2 2 2
20 21 21 22 23 24 28 30 27 24 24 25 24 22 21 21 21 18 19 18 17 17 17 17 17 16 16 15 16 15 16 21 18 13 12 14 13 12 11 10 8 7 7 7 7 9 10 8 9 9 9 14 16 14 14 18 17 15 14 12 12 11 10 11 10 8 8 7 4 2 5 7 7 4 3 4 4 5 4 3 2 2 2 2 2
19 20 16 19 21 21 28 32 31 28 25 26 26 24 23 23 23 21 20 20 19 19 19 20 20 20 19 18 18 18 18 21 19 13 13 15 14 14 17 16 14 13 13 11 10 13 14 11 12 12 14 16 17 14 13 17 16 15 14 13 12 11 10 11 10 8 7 6 4 4 6 7 7 5 4 6 6 5 5 4 3 3 2 2 2
19 21 15 13 16 18 27 33 33 32 28 27 29 26 25 25 25 24 22 21 21 21 23 24 24 23 22 21 20 20 20 22 19 15 15 16 14 15 17 19 20 18 18 17 14 17 17 15 16 17 17 16 16 15 12 14 14 14 14 13 13 12 11 11 10 7 7 6 3 5 8 9 9 8 7 7 8 7 6 5 4 3 3 2 2
19 23 19 11 13 21 30 34 34 35 30 28 31 29 27 27 27 26 24 23 24 23 25 27 26 25 24 22 20 20 23 23 20 18 17 16 15 15 15 17 20 18 19 20 18 18 18 19 20 19 19 18 17 16 13 13 13 13 14 14 14 13 11 12 9 6 9 9 5 7 10 11 11 11 10 9 9 7 6 5 5 4 3 3 3
20 24 21 10 12 24 33 34 36 37 32 29 31 30 28 28 28 27 26 25 25 24 25 27 27 25 25 23 21 21 23 23 21 19 19 18 15 15 15 15 17 17 17 18 18 17 17 22 23 20 21 21 20 19 17 16 14 14 15 14 14 12 11 13 11 9 10 11 8 10 12 13 13 13 13 11 9 7 7 6 6 5 4 4 4
23 26 20 10 10 21 33 37 38 37 34 30 31 33 30 29 29 28 27 27 26 25 25 28 29 27 25 23 22 21 22 23 21 19 20 20 17 15 15 14 15 17 16 15 17 16 15 21 23 20 19 20 21 20 19 19 17 15 15 13 13 12 14 14 11 10 10 11 11 13 14 14 14 14 14 13 11 8 8 8 7 6 5 5 5
27 29 24 15 13 21 33 40 39 37 35 31 30 34 33 30 30 29 28 28 27 25 25 28 29 27 25 23 21 20 21 23 22 19 19 20 19 15 15 15 16 17 16 15 17 15 15 18 20 18 17 18 20 19 18 18 17 15 14 13 13 14 15 14 12 11 10 10 13 15 15 15 16 17 16 14 11 8 8 8 8 7 6 6 5
30 33 28 20 20 26 33 39 39 38 36 33 31 35 36 34 32 31 31 30 29 27 24 25 27 27 24 22 21 19 20 24 23 20 19 20 20 16 15 16 17 17 16 17 17 14 14 16 16 17 18 18 19 19 18 17 16 14 13 13 15 17 17 16 15 14 12 13 14 14 15 17 19 21 19 14 10 9 8 9 8 7 7 6 4
34 37 32 27 27 29 31 34 37 38 38 35 33 35 38 37 36 35 34 32 30 28 25 24 26 26 23 22 21 18 19 23 23 21 20 21 21 18 17 18 17 17 16 17 17 14 14 15 15 16 17 18 18 18 18 17 16 16 16 16 17 19 19 19 19 18 16 15 15 15 16 19 20 21 19 15 12 11 10 10 9 9 9 7 4
39 40 36 31 30 30 29 31 35 37 38 34 32 34 37 37 37 35 34 33 31 29 26 25 25 24 22 23 22 19 18 21 23 22 22 23 23 20 20 19 18 17 17 17 17 16 16 16 16 15 16 17 17 18 18 18 18 18 18 18 18 20 20 19 21 21 19 17 16 16 18 19 20 20 18 15 14 13 13 13 12 10 10 9 7
40 40 38 35 34 32 30 32 34 35 36 33 31 31 33 34 34 34 34 32 30 29 27 25 25 23 23 23 24 21 19 20 22 23 23 24 24 23 22 20 19 18 18 19 19 18 16 15 15 15 15 17 17 18 19 19 18 18 18 18 19 19 19 20 22 22 21 20 17 16 19 19 18 17 16 15 15 13 13 14 14 12 10 9 8
42 41 40 39 39 36 32 32 34 36 34 31 29 28 31 32 32 33 33 31 29 28 26 26 27 25 24 24 25 24 21 20 22 24 25 25 25 25 24 22 20 19 19 20 21 19 17 16 16 16 16 18 18 19 20 20 19 19 19 19 17 17 18 19 21 23 23 21 19 18 19 19 17 16 16 15 14 13 12 13 13 13 11 9 9
43 42 41 41 41 37 33 31 33 36 32 28 27 28 31 33 33 34 34 31 29 29 27 29 31 28 26 26 26 25 23 22 22 23 26 26 25 26 26 24 21 20 20 20 21 20 18 17 17 17 17 18 18 18 20 21 21 20 19 17 13 14 17 15 14 19 23 23 20 19 18 18 17 17 16 15 13 14 14 13 13 13 12 10 10
44 42 41 40 40 39 35 33 34 34 31 29 28 28 31 34 35 36 37 35 34 34 31 31 34 31 28 27 26 26 26 24 23 23 25 26 25 26 28 26 23 22 21 20 21 21 20 19 18 18 18 18 17 18 21 21 22 21 20 18 13 12 13 11 11 14 19 24 22 19 19 20 19 18 18 16 15 16 16 14 13 14 14 12 12
44 42 42 41 40 39 36 34 34 33 32 31 29 28 30 34 35 35 37 38 36 36 31 30 34 31 28 28 27 28 28 27 26 25 25 26 25 26 29 28 25 24 22 20 21 21 20 19 18 17 17 18 19 19 21 21 23 23 22 21 17 12 9 10 12 13 16 22 23 21 21 21 21 21 19 18 17 18 18 16 15 15 15 15 13
43 42 43 43 41 39 37 36 36 35 35 33 30 29 29 31 34 35 37 37 34 33 29 28 32 31 28 29 29 29 30 30 29 27 26 26 26 26 28 29 27 25 23 22 21 21 21 19 19 18 17 19 20 20 20 22 24 24 23 22 20 16 13 10 12 12 13 18 21 22 22 22 22 22 21 20 18 19 18 17 18 18 17 16 15
45 45 44 43 41 40 38 38 38 38 37 35 31 29 28 29 33 35 36 35 32 31 29 27 30 31 30 31 31 30 31 32 32 29 27 27 28 27 27 30 29 26 25 24 22 21 21 21 21 20 19 19 20 19 20 22 23 22 22 22 21 21 19 15 13 13 12 13 16 20 20 22 24 24 23 22 20 20 18 16 18 20 20 19 18
48 47 45 43 42 41 41 40 41 40 38 37 33 30 29 30 32 34 35 35 31 30 31 29 30 33 33 33 33 32 32 33 33 31 29 28 29 28 28 30 30 27 26 25 23 22 22 23 22 21 20 20 20 21 22 23 23 21 21 22 23 24 23 21 20 18 16 15 14 15 17 20 23 22 20 21 20 20 19 17 18 21 22 22 21
48 46 45 45 44 44 43 42 42 41 40 39 35 32 31 31 31 32 33 33 30 29 31 33 32 34 36 36 36 34 33 33 33 32 30 29 30 30 29 29 30 28 27 26 26 24 22 23 24 23 22 21 21 21 22 23 24 23 23 23 24 25 25 25 24 23 21 20 18 16 16 18 20 18 16 17 18 20 21 20 20 21 22 23 23
Wind_Direction
169 163 161 156 153 151 147 145 142 142 140 138 135 136 136 138 139 140 143 143 145 143 141 138 136 137 137 137 135 137 138 136 133 130 128 129 127 124 123 122 119 114 108 102 100 99 97 94 92 90 88 85 81 77 73 71 71 74 76 79 79 77 75 74 73 71 71 72 73 74 78 81 82 82 77 71 70 70 70 68 65 65 65 64 63
163 164 165 158 156 152 148 146 143 143 141 139 136 136 136 139 141 143 146 147 151 149 146 144 141 140 139 140 138 137 138 139 137 134 131 132 130 128 127 125 121 116 110 104 102 100 97 95 92 90 88 87 83 78 74 70 69 71 74 77 80 80 77 75 74 72 71 70 70 72 74 77 78 80 78 74 72 71 71 68 64 63 66 66 64
158 163 167 160 158 154 150 147 145 145 142 141 137 138 138 139 143 145 147 151 154 153 152 149 146 144 142 143 143 141 139 140 140 137 134 134 134 132 130 127 123 118 112 107 104 101 97 95 93 90 88 87 84 80 76 71 68 69 75 79 80 80 77 76 75 73 71 69 68 69 73 76 77 79 76 72 70 68 67 66 64 63 66 66 65
159 163 167 163 160 155 152 149 147 146 144 142 139 139 139 141 144 147 148 151 154 156 156 153 152 149 147 147 149 147 143 142 142 142 137 136 137 136 133 129 126 121 114 109 106 102 98 96 94 91 87 86 84 82 77 72 68 69 78 83 83 81 78 76 75 73 70 66 63 64 69 73 73 71 71 72 71 69 65 63 62 61 64 64 63
162 164 167 165 161 158 153 151 149 147 146 144 141 140 140 143 146 150 150 152 154 156 157 157 157 154 154 153 152 152 149 145 143 145 141 139 141 139 137 133 129 124 117 112 108 104 101 99 96 92 88 85 83 81 78 75 70 72 80 87 87 83 81 81 82 82 76 67 57 55 59 66 69 66 63 67 71 73 71 65 62 60 60 60 60
163 165 166 165 161 158 154 151 150 149 149 146 143 141 141 144 147 152 152 155 156 155 158 160 160 160 160 159 157 155 153 149 144 146 146 143 144 144 140 137 132 127 121 115 112 108 105 102 98 94 88 86 84 82 79 77 74 76 83 89 90 88 89 89 88 89 88 84 64 51 50 59 70 71 65 61 61 65 67 64 61 59 57 54 54
164 165 166 166 162 158 156 152 152 151 151 148 146 144 143 146 148 153 155 157 158 158 161 163 162 163 166 165 165 162 158 154 147 146 149 147 146 147 144 140 136 131 125 120 117 112 109 105 101 96 91 87 85 82 80 79 78 81 87 90 90 91 91 89 88 93 97 97 77 53 46 54 66 74 77 71 62 58 60 59 58 56 54 51 50
164 166 167 166 163 159 157 153 153 153 152 150 147 146 145 147 149 154 158 160 160 161 165 167 165 166 170 169 171 169 164 159 151 148 151 151 149 151 148 145 140 136 130 125 121 117 114 110 105 99 94 89 85 84 81 80 80 84 91 95 96 97 89 84 90 96 100 97 80 58 45 54 60 66 74 78 74 64 60 57 57 55 52 50 49
166 167 167 167 163 160 158 156 155 154 154 152 149 148 147 148 151 155 161 163 163 165 166 169 168 168 169 169 173 171 167 164 157 152 153 153 152 153 152 149 145 141 136 130 125 122 119 114 110 104 98 91 86 84 83 81 82 87 92 98 103 103 94 83 87 93 98 95 81 62 49 58 59 59 65 74 73 65 62 58 56 52 49 47 48
168 168 168 168 164 161 160 158 156 156 155 153 151 150 149 150 152 156 162 165 165 166 168 170 171 170 168 167 169 167 165 164 161 156 155 156 154 156 156 153 150 148 142 135 130 126 123 119 115 109 101 92 87 83 84 84 85 90 94 99 103 104 104 94 89 93 99 96 83 64 55 61 61 58 59 68 70 65 61 56 52 48 45 45 46
169 168 169 169 165 164 161 159 158 157 157 154 153 151 151 152 154 158 162 165 165 167 168 169 172 171 168 165 166 164 163 162 162 160 158 159 158 159 160 158 155 154 147 141 136 130 126 122 119 111 102 93 87 83 84 88 89 95 100 104 104 103 105 102 103 105 109 106 88 66 58 66 66 60 59 65 70 67 58 51 48 43 41 43 43
170 169 169 169 167 166 163 162 160 158 158 155 154 152 152 153 155 159 162 165 164 166 168 169 173 173 170 165 163 163 164 163 162 162 161 162 162 162 162 162 160 158 154 147 140 134 129 124 119 110 100 91 86 84 86 91 95 103 111 109 103 99 96 99 110 114 114 109 81 62 58 66 69 64 62 66 67 63 54 46 43 39 38 39 40
170 170 169 171 169 168 167 163 162 160 160 157 155 153 153 155 157 160 162 165 164 166 167 168 172 174 172 167 164 164 165 165 164 163 164 165 166 165 165 166 165 163 159 152 146 140 134 127 121 110 99 91 86 83 87 96 103 113 117 109 102 97 93 99 109 114 112 99 71 62 60 63 71 69 64 67 64 59 51 43 39 37 35 37 38
171 169 171 174 170 171 168 165 164 162 161 159 156 153 155 156 159 162 163 165 163 164 165 166 170 173 173 170 168 167 167 166 166 165 166 167 167 168 167 169 169 167 163 157 153 147 140 133 124 114 102 92 87 84 88 99 110 119 121 115 107 99 96 102 109 117 116 99 71 62 60 61 74 75 68 68 61 54 45 40 37 33 32 35 37
173 170 173 175 173 173 169 167 167 165 163 159 157 155 156 158 160 163 164 165 162 164 165 166 170 171 171 172 171 169 170 169 167 168 169 169 169 171 171 172 173 169 168 164 160 154 147 141 131 120 107 96 89 86 91 101 112 120 126 122 115 110 98 96 109 120 120 103 67 57 58 61 73 71 68 67 59 46 37 37 35 29 28 32 36
175 172 177 177 175 174 169 170 170 167 163 160 159 156 157 158 161 164 166 167 164 165 166 168 171 171 170 171 172 169 170 170 170 171 171 171 172 174 174 174 175 172 172 171 166 162 156 150 139 128 115 102 92 87 94 105 115 120 121 118 119 125 101 88 109 118 121 104 67 55 52 59 65 61 62 63 54 40 32 32 30 26 26 29 34
179 176 179 178 178 176 172 172 172 168 164 162 161 159 159 159 163 167 169 170 167 167 167 169 172 172 170 170 172 171 169 169 171 172 171 173 175 176 177 177 175 174 176 176 172 168 164 158 148 138 126 112 97 89 97 108 120 125 114 113 122 124 99 92 106 117 124 105 73 57 52 59 63 57 58 59 44 32 26 22 22 23 23 29 33
185 179 179 180 179 177 174 173 173 169 166 165 164 164 162 162 167 169 170 172 169 168 168 169 171 172 171 172 174 173 170 169 170 171 171 173 175 177 178 179 176 175 179 181 178 175 170 165 157 149 140 127 105 91 100 114 129 131 109 114 134 110 92 99 95 102 106 89 62 52 55 57 60 57 58 58 29 19 16 11 13 16 21 29 32
191 183 180 182 181 178 175 175 175 171 170 169 167 168 167 169 169 171 172 173 171 170 170 170 171 173 175 176 177 176 172 169 168 170 172 174 174 178 180 181 178 177 182 184 182 180 175 172 165 157 152 142 118 99 104 120 138 135 111 121 142 90 44 310 307 39 73 71 46 46 51 50 58 58 54 49 13 4 4 2 4 8 17 27 29
191 188 184 183 181 179 177 177 177 174 175 173 172 171 171 173 171 173 174 174 174 172 172 172 172 174 178 179 178 178 175 168 168 171 174 175 175 179 182 183 182 180 184 186 184 183 180 176 170 164 161 156 134 106 108 125 146 142 124 139 161 40 348 317 316 340 38 94 60 39 13 43 61 62 48 10 350 347 351 354 357 2 12 24 26
188 188 186 185 182 180 179 179 178 178 179 177 176 176 174 175 174 175 176 177 176 174 174 174 175 178 179 179 179 177 174 171 170 174 177 178 179 182 184 186 185 184 186 188 187 186 184 182 176 170 166 167 151 119 117 133 157 157 135 158 210 319 295 266 297 328 121 153 113 25 348 39 59 66 8 324 328 333 339 346 350 358 11 21 22
188 187 187 187 184 183 183 182 179 180 181 181 180 180 180 177 178 178 178 180 178 178 178 177 177 179 180 181 181 177 173 172 172 177 180 183 185 186 187 189 189 187 188 189 190 188 188 187 181 177 173 173 165 153 146 146 171 172 136 161 209 266 255 261 279 291 139 173 176 219 317 15 21 349 305 304 315 325 331 338 345 356 10 17 16
188 188 188 188 189 188 187 186 183 182 182 184 185 186 186 181 182 183 181 182 181 181 179 180 179 178 182 182 181 176 171 172 176 179 181 188 189 190 192 191 192 192 192 191 191 191 190 190 187 185 180 177 179 205 199 165 173 181 141 175 233 255 248 257 256 226 16 190 190 196 230 335 323 294 280 284 303 317 323 331 341 354 7 11 12
200 195 189 190 194 193 191 189 185 185 183 185 187 190 192 187 186 187 185 184 183 184 182 182 181 179 182 182 181 176 173 174 177 178 183 193 194 195 197 195 195 196 197 195 193 192 192 193 191 191 186 185 186 241 230 176 170 259 247 223 254 255 246 253 247 230 252 218 196 199 252 319 307 290 278 278 296 308 316 326 338 351 4 7 10
200 207 198 194 197 196 194 192 189 188 186 186 189 191 195 193 191 191 189 187 186 187 185 185 184 183 183 184 185 181 177 177 179 179 184 195 197 202 204 203 200 198 201 200 197 195 194 194 194 193 184 186 187 224 219 168 183 296 294 233 248 253 252 259 258 242 237 225 205 216 259 292 299 292 279 281 293 303 312 323 334 347 359 5 11
196 218 217 205 201 202 199 196 193 191 190 189 192 193 197 198 195 194 192 189 191 191 190 189 188 185 186 186 187 185 181 182 183 182 188 193 197 206 208 210 208 204 204 204 204 200 197 198 195 191 184 182 185 196 212 165 230 275 296 245 234 244 257 264 257 232 229 229 213 223 253 281 303 299 287 285 292 301 310 320 330 346 354 1 14
213 218 223 216 205 203 202 202 199 195 193 191 193 195 199 202 198 196 196 193 191 194 196 196 192 188 188 188 188 189 186 185 180 182 196 199 199 208 209 215 217 212 207 205 207 205 202 202 194 188 180 170 181 201 225 229 237 257 278 245 225 234 255 262 252 236 231 230 222 232 264 302 318 313 302 290 289 299 305 316 329 343 350 357 14
209 203 209 215 215 211 200 203 203 199 197 194 194 196 201 203 200 197 196 196 193 194 197 199 196 187 185 187 188 191 191 187 175 175 198 210 205 200 195 214 223 219 212 207 208 206 204 203 195 182 163 159 174 206 231 239 240 242 246 235 238 249 271 269 257 249 241 238 236 245 285 317 322 319 315 299 287 294 295 311 330 335 344 355 12
202 194 194 199 214 224 214 204 205 205 203 200 197 196 202 203 201 198 193 194 196 194 195 199 198 186 186 190 188 192 193 188 174 171 196 214 202 177 157 139 193 203 199 203 207 204 204 203 191 175 166 164 168 213 248 248 236 229 238 249 256 267 279 267 256 257 249 241 237 249 294 315 317 314 316 309 294 285 283 298 311 322 338 358 10
202 202 200 200 209 222 228 217 205 210 207 201 200 198 204 204 199 197 193 192 194 192 190 197 201 188 189 196 193 192 192 188 178 178 198 211 193 167 158 119 106 149 157 172 191 195 201 194 174 169 173 167 180 247 254 235 216 217 243 258 262 266 266 256 256 261 250 231 223 239 292 317 323 313 309 314 300 279 268 276 291 319 337 359 9
205 211 211 217 220 216 223 224 212 212 210 201 199 200 205 206 198 196 196 191 188 190 189 193 200 197 194 203 204 194 186 186 185 184 195 203 190 174 172 153 122 146 145 140 155 189 195 177 157 163 181 194 233 258 250 220 208 223 247 258 258 259 261 259 257 250 227 218 217 246 299 322 330 323 314 322 302 278 264 264 287 320 339 358 4
205 210 210 215 223 216 214 221 221 214 211 205 198 199 206 207 200 198 200 192 187 190 189 191 199 205 206 212 215 201 184 186 189 183 187 198 189 177 186 191 182 184 161 149 179 201 189 168 154 162 205 234 237 249 246 231 230 241 248 251 250 255 267 264 253 235 219 208 197 250 301 322 334 345 21 3 308 280 269 265 293 320 345 355 349
199 203 209 213 216 218 213 217 223 216 212 209 201 200 206 206 204 205 205 196 191 192 189 195 204 210 215 220 222 212 190 187 191 181 181 195 187 177 193 206 199 199 194 192 209 200 185 176 169 183 220 228 231 242 238 229 233 241 244 247 247 251 264 259 246 231 219 203 186 259 295 313 327 343 31 14 327 288 279 278 299 316 338 343 329
186 190 203 213 208 216 217 213 219 218 212 210 203 201 202 204 207 209 210 202 196 194 191 200 209 212 219 227 227 220 200 190 189 180 183 195 188 182 191 197 197 198 200 203 204 193 188 186 186 203 223 224 229 238 229 222 227 231 235 247 248 250 258 251 241 237 231 215 207 249 275 295 306 305 316 338 325 295 287 288 294 306 318 319 298
176 181 182 203 205 215 217 212 218 219 213 208 203 203 200 202 207 209 211 207 201 197 194 201 209 212 221 228 229 223 206 192 188 183 189 197 192 190 192 193 198 199 200 203 199 194 191 187 193 208 218 220 225 231 229 224 227 229 235 243 243 249 253 240 236 246 246 237 232 243 261 283 293 298 300 315 317 294 284 288 287 288 290 279 257
171 174 169 177 199 209 210 209 218 218 213 209 203 203 202 203 208 209 211 208 207 204 199 203 209 213 220 226 228 219 201 192 189 188 196 202 196 196 195 193 200 200 198 201 202 201 194 188 195 205 212 218 221 224 231 233 236 239 240 239 239 248 243 226 222 225 235 242 244 238 255 276 286 299 305 312 316 293 276 281 280 279 277 267 251
172 170 169 170 188 202 204 207 217 217 214 211 203 201 203 206 209 210 211 210 212 213 207 207 211 217 223 227 225 211 196 193 193 190 196 205 200 198 199 194 196 197 196 200 205 206 199 194 199 204 210 218 222 225 230 235 241 241 240 239 241 242 224 213 206 198 224 244 244 234 251 270 279 294 300 303 306 282 265 274 276 278 276 257 242
178 176 181 195 198 197 199 206 216 217 215 213 204 200 202 206 210 212 213 213 216 218 215 211 215 221 225 227 221 205 194 197 199 193 194 203 204 199 198 193 189 192 199 203 205 208 202 198 203 208 211 216 223 227 229 233 238 237 236 236 234 223 207 206 203 199 223 243 241 240 256 269 275 287 290 293 296 272 256 270 277 280 273 253 242
184 184 191 210 207 194 198 208 215 215 214 213 206 201 202 204 207 211 214 217 217 218 217 214 218 222 223 225 216 202 197 201 204 199 195 201 203 200 196 194 190 193 201 205 206 207 200 198 204 209 211 216 222 225 227 230 233 231 231 226 217 206 197 199 199 202 226 239 238 245 259 270 278 284 285 288 289 267 251 262 271 277 265 246 248
190 190 195 203 194 188 199 208 213 214 212 210 206 203 203 204 205 209 214 218 218 217 217 217 219 219 222 224 213 203 201 203 207 204 197 199 202 199 195 194 195 198 202 206 209 208 201 199 204 210 213 217 221 223 224 225 224 219 217 213 205 198 195 197 196 200 219 231 237 247 260 271 279 281 280 281 278 267 261 261 268 275 258 238 252
193 195 197 196 189 189 198 204 208 212 210 207 207 205 205 205 205 207 211 216 217 216 218 218 215 214 221 224 213 206 203 204 208 205 199 200 201 199 194 195 197 198 200 208 213 210 204 202 206 213 217 219 222 224 222 217 213 205 201 203 203 202 202 200 199 203 213 223 233 245 257 269 274 273 275 277 272 269 271 269 270 271 256 247 265
195 198 202 201 195 195 200 203 204 208 210 209 210 209 208 207 206 207 209 213 215 216 218 216 209 212 222 224 217 212 207 207 209 206 201 202 204 202 198 197 197 195 198 209 218 213 208 208 210 214 219 221 223 227 223 211 208 209 206 205 203 206 211 210 207 208 212 218 227 243 256 265 266 264 268 273 271 271 274 275 274 266 249 247 263
198 200 207 206 199 197 200 203 203 206 210 211 212 213 212 210 207 206 207 212 215 216 219 214 206 214 224 224 220 218 215 213 212 208 205 204 206 206 204 201 199 198 199 208 218 217 212 215 217 220 223 221 219 223 222 215 213 212 208 208 207 209 216 219 218 213 214 219 224 239 252 260 263 260 261 269 272 272 276 278 276 266 253 251 259
200 202 205 203 198 197 200 203 205 207 209 210 214 216 213 210 208 206 207 214 217 217 220 213 206 212 222 224 222 222 220 216 214 212 209 207 208 210 210 206 202 203 205 209 217 219 214 216 220 222 224 221 217 218 217 215 217 211 204 206 207 212 220 228 229 220 215 222 228 233 244 256 260 256 255 262 269 273 278 278 272 269 271 274 271
202 204 205 205 202 201 203 207 208 208 210 210 211 213 211 207 204 201 205 214 218 219 220 212 205 207 215 222 224 224 223 218 215 214 213 211 211 214 214 210 204 205 208 210 215 219 217 216 220 225 227 223 221 222 218 215 217 218 214 208 203 215 224 227 229 223 216 221 230 233 241 253 256 255 255 257 262 268 274 272 267 267 274 283 282
203 207 209 209 209 207 205 208 211 210 211 211 208 211 211 206 201 199 201 208 213 217 218 210 205 205 209 217 223 225 225 221 218 216 216 214 214 216 216 211 207 208 209 210 214 219 220 217 218 224 229 225 222 223 223 219 216 219 221 220 222 227 225 217 219 222 215 217 224 231 241 250 252 255 258 259 258 262 267 263 258 261 266 275 279
205 208 210 210 211 211 209 210 213 213 212 211 208 210 211 208 205 202 203 208 212 215 217 211 206 206 208 215 222 225 226 225 222 219 217 215 215 216 216 213 211 211 212 213 214 219 223 223 221 224 228 226 221 220 222 220 216 220 220 219 225 226 221 220 223 222 211 211 217 224 235 242 245 251 256 259 258 259 263 256 248 252 261 269 274
208 210 211 211 212 214 215 216 217 216 214 210 209 210 211 211 210 206 204 208 215 217 217 210 205 207 210 214 222 225 226 226 226 224 220 216 214 214 215 216 214 213 215 216 217 219 222 225 225 225 226 226 225 223 223 219 218 223 220 215 215 215 219 224 224 224 216 213 215 220 229 234 240 250 254 257 255 255 261 256 247 248 254 262 266
209 211 213 213 214 215 216 218 218 217 215 211 210 211 212 213 212 208 205 208 214 217 218 213 205 207 212 215 220 225 226 226 227 227 223 218 216 214 214 217 218 216 216 218 219 219 221 224 225 225 224 225 227 226 225 225 226 226 222 219 214 212 220 221 216 222 226 222 218 220 225 227 233 244 252 254 253 250 253 255 252 250 252 257 260
206 210 212 213 215 215 215 218 217 216 216 213 212 212 210 211 211 209 207 207 209 212 216 217 210 208 213 216 219 224 225 225 227 228 225 222 220 217 214 215 218 219 219 218 219 219 220 223 225 227 228 228 227 226 225 228 232 231 227 227 221 215 219 219 214 217 223 229 229 226 229 230 233 241 249 252 251 248 247 248 251 254 256 257 259
207 208 210 212 214 215 215 216 216 216 216 214 213 213 209 209 211 212 209 209 209 210 214 217 213 209 213 217 220 223 225 226 227 227 225 223 223 221 216 214 217 221 222 220 219 220 221 224 226 227 230 231 231 230 227 226 228 229 228 228 226 223 223 222 221 222 223 230 236 237 239 241 244 252 258 259 253 246 242 242 245 251 256 259 263